Weather History for Jacksonville Craig, FL

Change the Weather History Date:

Tuesday, January 29, 2013

  Actual Average Record
Temperature  
Mean Temperature 66 °F -  
Max Temperature 78 °F 63 °F 78 °F (2002)
Min Temperature 55 °F 44 °F 27 °F (2004)
Cooling Degree Days 2    
Growing Degree Days 16 (Base 50)    
Moisture  
Dew Point 59 °F    
Average Humidity 84    
Maximum Humidity 94    
Minimum Humidity 58    
Precipitation  
Precipitation 0.00 in - - ()
Sea Level Pressure  
Sea Level Pressure 30.21 in    
Wind  
Wind Speed 3 mph (SSE)    
Max Wind Speed 14 mph    
Max Gust Speed 18 mph    
Visibility 6 miles    
Events Fog    
Averages and records for this station are not official NWS values.
T = Trace of Precipitation, MM = Missing Value Source: NWS Daily Summary

Daily Weather History Graph

Daily Weather History Graph

Search for Another Location

Airport:

Trip Planner

Search our weather history database for the weather conditions in past years. The results will help you decide how hot, cold, wet, or windy it might be!

Date:

Astronomy

Jan. 29, 2013 Rise Set
Actual Time 7:18 AM EST 6:00 PM EST
Civil Twilight 6:53 AM EST 6:25 PM EST
Nautical Twilight 6:24 AM EST 6:54 PM EST
Astronomical Twilight 5:55 AM EST 7:22 PM EST
Moon 8:38 PM EST (1/29) 8:29 AM EST (1/29)
Length of Visible Light 11h 32m
Length of Day
10h 41m
Waning Gibbous, 94% of the Moon is Illuminated
Jan 29
Waning Gibbous
Feb 3
Last Quarter
Feb 10
New
Feb 17
First Quarter
Feb 25
Full

Hourly Weather History & Observations

Time (EST) Temp. Dew Point Humidity Pressure Visibility Wind Dir Wind Speed Gust Speed Precip Events Conditions
12:53 AM 63.0 °F 59.0 °F 87% 30.27 in 10.0 mi Calm Calm - N/A   Mostly Cloudy
1:13 AM 62.6 °F 59.0 °F 88% 30.27 in 1.8 mi Calm Calm - N/A   Scattered Clouds
1:23 AM 59.0 °F 55.4 °F 88% 30.26 in 3.0 mi SE 3.5 mph - N/A   Partly Cloudy
1:53 AM 61.0 °F 57.9 °F 90% 30.25 in 1.5 mi Calm Calm - N/A   Clear
2:06 AM 60.8 °F 57.2 °F 88% 30.25 in 2.0 mi Calm Calm - N/A   Clear
2:13 AM 59.0 °F 57.2 °F 94% 30.25 in 1.0 mi SE 3.5 mph - N/A   Clear
2:32 AM 59.0 °F 57.2 °F 94% 30.25 in 0.8 mi Calm Calm - N/A   Clear
2:38 AM 57.2 °F 55.4 °F 94% 30.25 in 2.0 mi Calm Calm - N/A   Clear
2:53 AM 59.0 °F 55.0 °F 87% 30.25 in 1.0 mi Calm Calm - N/A   Mist
2:58 AM 57.2 °F 55.4 °F 94% 30.25 in 0.5 mi Calm Calm - N/A Fog Fog
3:03 AM 57.2 °F 55.4 °F 94% 30.24 in 1.0 mi SE 3.5 mph - N/A   Mist
3:10 AM 60.8 °F 57.2 °F 88% 30.24 in 0.5 mi SE 4.6 mph - N/A Fog Fog
3:16 AM 57.2 °F 55.4 °F 94% 30.24 in 1.0 mi SSE 4.6 mph - N/A   Mist
3:19 AM 59.0 °F 55.4 °F 88% 30.24 in 2.0 mi SSE 4.6 mph - N/A   Scattered Clouds
3:26 AM 60.8 °F 59.0 °F 94% 30.24 in 7.0 mi SSE 4.6 mph - N/A   Scattered Clouds
3:53 AM 62.1 °F 59.0 °F 90% 30.23 in 7.0 mi South 3.5 mph - N/A   Clear
4:31 AM 60.8 °F 57.2 °F 88% 30.23 in 1.8 mi Calm Calm - N/A   Clear
4:44 AM 60.8 °F 59.0 °F 94% 30.23 in 3.0 mi South 4.6 mph - N/A   Clear
4:53 AM 61.0 °F 57.9 °F 90% 30.23 in 7.0 mi SSE 3.5 mph - N/A   Clear
5:20 AM 60.8 °F 57.2 °F 88% 30.23 in 1.8 mi Calm Calm - N/A   Clear
5:37 AM 57.2 °F 55.4 °F 94% 30.23 in 1.0 mi SSE 3.5 mph - N/A   Mist
5:44 AM 60.8 °F 59.0 °F 94% 30.23 in 7.0 mi Calm Calm - N/A Fog Patches of Fog
5:53 AM 61.0 °F 59.0 °F 93% 30.23 in 7.0 mi Calm Calm - N/A Fog Patches of Fog
6:53 AM 55.9 °F 54.0 °F 93% 30.25 in 7.0 mi Calm Calm - N/A Fog Patches of Fog
7:53 AM 57.0 °F 54.0 °F 89% 30.25 in 6.0 mi Calm Calm - N/A Fog Patches of Fog
8:00 AM 57.2 °F 55.4 °F 94% 30.25 in 0.5 mi Calm Calm - N/A Fog Patches of Fog
8:05 AM 59.0 °F 55.4 °F 88% 30.25 in 6.0 mi Calm Calm - N/A Fog Patches of Fog
8:53 AM 64.9 °F 62.1 °F 90% 30.26 in 9.0 mi Calm Calm - N/A   Clear
9:53 AM 72.0 °F 64.0 °F 76% 30.26 in 10.0 mi SSE 8.1 mph - N/A   Clear
10:53 AM 75.9 °F 63.0 °F 64% 30.25 in 10.0 mi SSE 6.9 mph - N/A   Clear
11:53 AM 77.0 °F 63.0 °F 62% 30.23 in 10.0 mi SE 9.2 mph - N/A   Partly Cloudy
12:53 PM 78.1 °F 62.1 °F 58% 30.19 in 10.0 mi Variable 6.9 mph - N/A   Mostly Cloudy
1:53 PM 75.0 °F 64.0 °F 69% 30.16 in 10.0 mi ESE 10.4 mph - N/A   Mostly Cloudy
2:53 PM 77.0 °F 63.0 °F 62% 30.15 in 10.0 mi ESE 9.2 mph - N/A   Mostly Cloudy
3:53 PM 75.9 °F 63.0 °F 64% 30.14 in 10.0 mi SE 11.5 mph - N/A   Mostly Cloudy
4:53 PM 75.0 °F 64.0 °F 69% 30.14 in 10.0 mi SE 13.8 mph - N/A   Clear
5:53 PM 72.0 °F 64.0 °F 76% 30.13 in 10.0 mi SE 12.7 mph 18.4 mph N/A   Clear
6:53 PM 70.0 °F 64.0 °F 81% 30.13 in 10.0 mi SE 9.2 mph - N/A   Clear
7:53 PM 70.0 °F 64.0 °F 81% 30.12 in 10.0 mi SSE 10.4 mph - N/A   Clear
8:53 PM 70.0 °F 64.0 °F 81% 30.12 in 10.0 mi SSE 9.2 mph - N/A   Clear
9:53 PM 71.1 °F 63.0 °F 75% 30.12 in 10.0 mi SSE 8.1 mph - N/A   Clear
10:53 PM 71.1 °F 62.1 °F 73% 30.12 in 10.0 mi South 10.4 mph - N/A   Clear
11:53 PM 70.0 °F 62.1 °F 76% 30.12 in 10.0 mi South 6.9 mph - N/A   Clear